FW4376 Weather Reports


time (UTC)temp
F
wind
direction
speed
knots
gust
knots
rain 1hr
in
rain 24hr
in
rain mn
in
humidity
%
barometer
mb
20260502200005 78 307 1.7 6.1 0.00 0.00 0.00 38 1020.6
20260502194503 78 48 0.9 5.2 0.00 0.00 0.00 38 1020.8
20260502193003 78 44 0.9 3.5 0.00 0.00 0.00 38 1021.0
20260502191502 77 63 0.9 3.5 0.00 0.00 0.00 38 1021.1
20260502190100 76 110 0.9 5.2 0.00 0.00 0.00 38 1021.3
20260502184602 76 186 0.9 4.3 0.00 0.00 0.00 40 1021.4
20260502183108 77 278 0.9 3.5 0.00 0.00 0.00 38 1021.6
20260502181556 76 103 0.0 4.3 0.00 0.00 0.00 38 1021.8
20260502163050 73 353 0.9 5.2 0.00 0.00 0.00 39 1022.6
20260502161543 73 23 0.9 4.3 0.00 0.00 0.00 41 1022.5
20260502151536 69 31 0.0 2.6 0.00 0.00 0.00 53 1022.3
20260502123050 51 231 0.0 0.9 0.00 0.00 0.00 92 1020.9
20260502121549 50 231 0.0 0.9 0.00 0.00 0.00 92 1020.6
20260502114601 50 231 0.0 0.0 0.00 0.00 0.00 91 1020.2
20260502113047 51 231 0.0 0.9 0.00 0.00 0.00 91 1019.9
20260502111550 51 231 0.0 0.9 0.00 0.00 0.00 92 1019.9
20260502110041 51 231 0.0 0.9 0.00 0.00 0.00 93 1019.8
20260502104547 50 231 0.0 0.9 0.00 0.00 0.00 92 1019.4
20260502103038 50 231 0.0 0.9 0.00 0.00 0.00 92 1019.2
20260502101605 50 231 0.0 0.9 0.00 0.00 0.00 92 1019.2
20260502071525 51 121 0.0 0.0 0.00 0.00 0.00 91 1019.1
20260502070043 51 121 0.0 0.0 0.00 0.00 0.00 91 1019.3
20260502064522 52 121 0.0 0.9 0.00 0.00 0.00 92 1019.3
20260502063022 52 121 0.0 0.0 0.00 0.00 0.00 91 1019.2
20260502061521 51 121 0.0 0.0 0.00 0.00 0.00 90 1019.2
20260502060019 52 121 0.0 0.0 0.00 0.00 0.00 90 1019.3
20260502054517 52 121 0.0 0.0 0.00 0.00 0.00 89 1019.1
20260502053014 53 121 0.0 0.0 0.00 0.00 0.00 89 1019.2
20260502051512 54 121 0.0 0.0 0.00 0.00 0.00 90 1019.2
20260502050012 55 121 0.0 0.0 0.00 0.00 0.00 89 1019.1
20260502044512 55 121 0.0 0.0 0.00 0.00 0.00 88 1019.1
20260502043008 55 121 0.0 0.0 0.00 0.00 0.00 87 1019.0
20260502041507 55 121 0.0 0.0 0.00 0.00 0.00 86 1019.0
20260502040005 55 121 0.0 0.0 0.00 0.00 0.00 86 1019.1
20260502034505 56 121 0.0 0.9 0.00 0.00 0.00 85 1019.1
20260502033002 56 120 0.0 0.0 0.00 0.00 0.00 84 1018.9
20260502031502 57 120 0.0 0.0 0.00 0.00 0.00 83 1018.8
20260502030107 57 120 0.0 0.0 0.00 0.00 0.00 83 1018.8
20260502024559 57 120 0.0 0.0 0.00 0.01 0.00 82 1018.7
20260502023123 57 120 0.0 0.0 0.00 0.01 0.00 81 1018.5
20260502021556 58 120 0.0 0.0 0.00 0.01 0.00 81 1018.2
20260502020106 58 120 0.0 0.0 0.00 0.01 0.00 80 1017.8
20260502014555 59 120 0.0 0.9 0.00 0.01 0.00 80 1017.5
20260502013103 59 120 0.0 0.9 0.00 0.01 0.00 79 1017.2
20260502011606 60 120 0.0 0.0 0.00 0.01 0.00 77 1017.1
20260502010053 60 120 0.0 0.9 0.00 0.01 0.00 76 1017.0
20260502004609 60 120 0.0 0.9 0.00 0.01 0.00 75 1016.9
20260502003056 61 120 0.0 0.9 0.00 0.01 0.00 75 1016.7
20260502001607 61 115 0.0 0.9 0.00 0.01 0.00 74 1016.4
20260502000100 61 146 0.0 0.9 0.00 0.01 0.00 74 1016.1
20260501234604 61 120 0.0 0.9 0.00 0.01 0.00 74 1016.2
20260501233057 61 95 0.0 0.9 0.00 0.01 0.00 75 1016.1
20260501231553 62 105 0.0 0.9 0.00 0.01 0.00 74 1015.7
20260501230050 62 141 0.0 0.9 0.00 0.01 0.00 71 1015.7
20260501224548 62 111 0.0 1.7 0.00 0.01 0.00 68 1015.5
20260501223050 62 44 0.0 1.7 0.00 0.01 0.00 67 1015.5
20260501221547 62 110 0.0 1.7 0.00 0.01 0.00 66 1015.4
20260501220124 63 141 0.0 2.6 0.00 0.01 0.00 65 1015.5
20260501214547 63 176 0.0 3.5 0.00 0.01 0.00 64 1015.7
20260501213057 62 1 0.0 3.5 0.00 0.01 0.00 65 1015.5
20260501211546 62 37 0.0 4.3 0.00 0.01 0.00 64 1015.4
20260501204548 63 63 0.9 5.2 0.00 0.01 0.00 61 1015.9
20260501203044 63 243 0.9 4.3 0.00 0.01 0.00 62 1016.1
20260501201545 63 131 0.9 3.5 0.00 0.01 0.00 62 1016.6